Previsão horária em Cayo Carenero

Hoje, 30 Julho, Sexta-feira

Tempo Temperatura Precipitação Vento Pressão Humidade
00:00 +27°C° 0.2 mm 2 m/s 759 mmHg 92%
01:00 +27°C° 0.2 mm 2 m/s 758 mmHg 93%
02:00 +26°C° 0.1 mm 2 m/s 758 mmHg 92%
03:00 +26°C° 0.1 mm 1 m/s 758 mmHg 91%
04:00 +26°C° 0.1 mm 1 m/s 758 mmHg 91%
05:00 +26°C° 0.1 mm 2 m/s 758 mmHg 89%
06:00 +26°C° 0.1 mm 2 m/s 758 mmHg 88%
07:00 +26°C° 0.1 mm 2 m/s 758 mmHg 86%
08:00 +28°C° 0.2 mm 2 m/s 759 mmHg 78%
09:00 +30°C° 0.2 mm 2 m/s 759 mmHg 70%
10:00 +32°C° 0.2 mm 1 m/s 759 mmHg 62%
11:00 +32°C° 0 mm 2 m/s 759 mmHg 61%
12:00 +34°C° 0 mm 2 m/s 759 mmHg 60%
13:00 +34°C° 0 mm 2 m/s 759 mmHg 60%
14:00 +34°C° 0 mm 2 m/s 758 mmHg 61%
15:00 +34°C° 0 mm 2 m/s 757 mmHg 63%
16:00 +34°C° 0 mm 2 m/s 757 mmHg 64%
17:00 +31°C° 0 mm 3 m/s 757 mmHg 73%
18:00 +30°C° 0 mm 3 m/s 757 mmHg 81%
19:00 +28°C° 0 mm 3 m/s 757 mmHg 89%
20:00 +28°C° 0.1 mm 3 m/s 758 mmHg 90%
21:00 +28°C° 0.1 mm 2 m/s 759 mmHg 91%
22:00 +27°C° 0.1 mm 2 m/s 759 mmHg 92%
23:00 +27°C° 0.4 mm 2 m/s 759 mmHg 92%

Amanhã, 31 Julho, Sábado

Tempo Temperatura Precipitação Vento Pressão Humidade
00:00 +27°C° 0.4 mm 2 m/s 759 mmHg 92%
01:00 +27°C° 0.4 mm 2 m/s 758 mmHg 92%
02:00 +27°C° 0.1 mm 2 m/s 758 mmHg 91%
03:00 +27°C° 0.1 mm 2 m/s 758 mmHg 90%
04:00 +26°C° 0.1 mm 2 m/s 758 mmHg 89%
05:00 +26°C° 0 mm 2 m/s 758 mmHg 88%
06:00 +27°C° 0 mm 2 m/s 758 mmHg 86%
07:00 +27°C° 0 mm 2 m/s 758 mmHg 84%
08:00 +29°C° 0 mm 2 m/s 758 mmHg 77%
09:00 +30°C° 0 mm 1 m/s 759 mmHg 69%
10:00 +32°C° 0 mm 1 m/s 759 mmHg 61%
11:00 +34°C° 0 mm 2 m/s 759 mmHg 59%
12:00 +35°C° 0 mm 2 m/s 758 mmHg 58%
13:00 +36°C° 0 mm 2 m/s 758 mmHg 56%
14:00 +35°C° 0 mm 3 m/s 757 mmHg 59%
15:00 +35°C° 0 mm 3 m/s 757 mmHg 61%
16:00 +34°C° 0 mm 3 m/s 757 mmHg 64%
17:00 +33°C° 0 mm 3 m/s 757 mmHg 72%
18:00 +30°C° 0 mm 3 m/s 757 mmHg 80%
19:00 +29°C° 0 mm 3 m/s 758 mmHg 89%
20:00 +28°C° 0.1 mm 2 m/s 758 mmHg 90%
21:00 +28°C° 0.1 mm 2 m/s 758 mmHg 91%
22:00 +28°C° 0.1 mm 2 m/s 759 mmHg 92%
23:00 +28°C° 0.6 mm 2 m/s 759 mmHg 92%

Depois de amanhã, 1 Agosto, Domingo

Tempo Temperatura Precipitação Vento Pressão Humidade
00:00 +27°C° 0.6 mm 2 m/s 759 mmHg 92%
01:00 +27°C° 0.6 mm 2 m/s 758 mmHg 92%
02:00 +27°C° 0.6 mm 2 m/s 758 mmHg 91%
03:00 +27°C° 0.6 mm 3 m/s 758 mmHg 91%
04:00 +27°C° 0.6 mm 3 m/s 758 mmHg 91%
05:00 +27°C° 0.2 mm 3 m/s 758 mmHg 90%
06:00 +27°C° 0.2 mm 4 m/s 758 mmHg 89%
07:00 +27°C° 0.2 mm 4 m/s 759 mmHg 88%
08:00 +29°C° 0 mm 4 m/s 759 mmHg 80%
09:00 +30°C° 0 mm 4 m/s 759 mmHg 73%
10:00 +33°C° 0 mm 5 m/s 759 mmHg 66%
11:00 +33°C° 0.1 mm 5 m/s 759 mmHg 67%
12:00 +33°C° 0.1 mm 5 m/s 759 mmHg 69%
13:00 +33°C° 0.1 mm 6 m/s 758 mmHg 70%
14:00 +33°C° 0.7 mm 5 m/s 758 mmHg 75%
15:00 +32°C° 0.7 mm 5 m/s 758 mmHg 80%
16:00 +30°C° 0.7 mm 4 m/s 757 mmHg 84%
17:00 +29°C° 2.1 mm 4 m/s 758 mmHg 87%
18:00 +28°C° 2.1 mm 3 m/s 758 mmHg 90%
19:00 +27°C° 2.1 mm 3 m/s 758 mmHg 93%
20:00 +27°C° 2.1 mm 3 m/s 759 mmHg 93%
21:00 +27°C° 2.1 mm 3 m/s 759 mmHg 93%
22:00 +27°C° 2.1 mm 3 m/s 760 mmHg 92%
23:00 +27°C° 0.7 mm 3 m/s 760 mmHg 92%

2 Agosto, Segunda-feira

Tempo Temperatura Precipitação Vento Pressão Humidade
00:00 +27°C° 0.7 mm 3 m/s 759 mmHg 92%
01:00 +27°C° 0.7 mm 4 m/s 759 mmHg 92%
02:00 +26°C° 0.5 mm 4 m/s 759 mmHg 92%
03:00 +26°C° 0.5 mm 4 m/s 758 mmHg 92%
04:00 +26°C° 0.5 mm 4 m/s 758 mmHg 91%
05:00 +26°C° 0 mm 4 m/s 758 mmHg 91%
06:00 +26°C° 0 mm 4 m/s 758 mmHg 90%
07:00 +26°C° 0 mm 3 m/s 759 mmHg 89%
08:00 +28°C° 0.1 mm 3 m/s 759 mmHg 83%
09:00 +30°C° 0.1 mm 4 m/s 759 mmHg 76%
10:00 +33°C° 0.1 mm 4 m/s 759 mmHg 69%
11:00 +33°C° 0.1 mm 4 m/s 759 mmHg 69%
12:00 +33°C° 0.1 mm 5 m/s 758 mmHg 69%
13:00 +34°C° 0.1 mm 6 m/s 758 mmHg 69%
14:00 +33°C° 1 mm 5 m/s 758 mmHg 74%
15:00 +32°C° 1 mm 5 m/s 757 mmHg 79%
16:00 +30°C° 1 mm 5 m/s 757 mmHg 84%
17:00 +29°C° 2.6 mm 4 m/s 757 mmHg 87%
18:00 +28°C° 2.6 mm 3 m/s 758 mmHg 91%
19:00 +27°C° 2.6 mm 3 m/s 758 mmHg 94%
20:00 +27°C° 1.9 mm 3 m/s 758 mmHg 94%
21:00 +27°C° 1.9 mm 3 m/s 759 mmHg 95%
22:00 +27°C° 1.9 mm 3 m/s 759 mmHg 95%
23:00 +27°C° 0.7 mm 3 m/s 759 mmHg 94%

3 Agosto, Terça-feira

Tempo Temperatura Precipitação Vento Pressão Humidade
00:00 +27°C° 0.7 mm 3 m/s 758 mmHg 94%
01:00 +27°C° 0.7 mm 2 m/s 758 mmHg 93%
02:00 +27°C° 1.2 mm 2 m/s 758 mmHg 93%
03:00 +27°C° 1.2 mm 2 m/s 758 mmHg 92%
04:00 +26°C° 1.2 mm 2 m/s 757 mmHg 92%
05:00 +26°C° 0.1 mm 1 m/s 758 mmHg 91%
06:00 +26°C° 0.1 mm 1 m/s 758 mmHg 90%
07:00 +26°C° 0.1 mm 1 m/s 758 mmHg 89%
08:00 +27°C° 0 mm 1 m/s 758 mmHg 86%
09:00 +28°C° 0 mm 1 m/s 759 mmHg 84%
10:00 +29°C° 0 mm 1 m/s 759 mmHg 82%
11:00 +29°C° 0 mm 1 m/s 759 mmHg 83%
12:00 +29°C° 0 mm 1 m/s 759 mmHg 84%
13:00 +29°C° 0 mm 1 m/s 759 mmHg 85%
14:00 +29°C° 0 mm 1 m/s 758 mmHg 85%
15:00 +29°C° 0 mm 1 m/s 758 mmHg 85%
16:00 +29°C° 0 mm 1 m/s 758 mmHg 85%
17:00 +28°C° 0 mm 1 m/s 758 mmHg 86%
18:00 +28°C° 0 mm 1 m/s 758 mmHg 87%
19:00 +27°C° 0 mm 1 m/s 758 mmHg 88%
20:00 +27°C° 0 mm 1 m/s 759 mmHg 86%
21:00 +27°C° 0 mm 1 m/s 759 mmHg 85%
22:00 +27°C° 0 mm 1 m/s 759 mmHg 83%
23:00 +27°C° 0 mm 1 m/s 759 mmHg 82%

4 Agosto, Quarta-feira

Tempo Temperatura Precipitação Vento Pressão Humidade
00:00 +27°C° 0 mm 1 m/s 759 mmHg 82%
01:00 +27°C° 0 mm 1 m/s 759 mmHg 81%
02:00 +26°C° 0 mm 1 m/s 759 mmHg 82%
03:00 +26°C° 0 mm 1 m/s 759 mmHg 84%
04:00 +26°C° 0 mm 1 m/s 759 mmHg 85%
05:00 +26°C° 0.4 mm 1 m/s 759 mmHg 85%
06:00 +26°C° 0.4 mm 1 m/s 759 mmHg 86%
07:00 +26°C° 0.4 mm 1 m/s 760 mmHg 86%
08:00 +28°C° 0 mm 1 m/s 760 mmHg 79%
09:00 +30°C° 0 mm 1 m/s 760 mmHg 72%
10:00 +30°C° 0 mm 0 m/s 760 mmHg 64%
11:00 +33°C° 0 mm 1 m/s 760 mmHg 64%
12:00 +33°C° 0 mm 1 m/s 760 mmHg 63%
13:00 +34°C° 0 mm 1 m/s 759 mmHg 62%
14:00 +33°C° 0.1 mm 1 m/s 759 mmHg 64%
15:00 +33°C° 0.1 mm 1 m/s 758 mmHg 66%
16:00 +32°C° 0.1 mm 1 m/s 758 mmHg 68%
17:00 +31°C° 0 mm 1 m/s 758 mmHg 75%
18:00 +30°C° 0 mm 1 m/s 758 mmHg 81%
19:00 +29°C° 0 mm 1 m/s 758 mmHg 88%
20:00 +28°C° 0.2 mm 1 m/s 759 mmHg 90%
21:00 +28°C° 0.2 mm 1 m/s 759 mmHg 91%
22:00 +27°C° 0.2 mm 1 m/s 760 mmHg 93%
23:00 +27°C° 0.4 mm 1 m/s 760 mmHg 93%
Mostrar mais

Necessitamos do seu Consentimento

A Meteoprog e os seus Fornecedores de Serviços podem armazenar e aceder a dados pessoais como cookies, identificadores do dispositivo ou outras tecnologias semelhantes existentes no seu dispositivo e processar estes dados para personalizar conteúdos e anúncios, assim como funcionalidades nas redes sociais e análise de tráfego.

  • Armazenar e/ou aceder a informações no seu dispositivo

    Os cookies, identificadores do dispositivo ou outras informações podem ser armazenados ou acedidos no seu dispositivo, para os fins acima indicados.

  • Anúncios e conteúdos personalizados, medição de anúncios e conteúdos, dados sobre o público-alvo e desenvolvimento de produtos

    Os anúncios e os conteúdos podem ser personalizados com base num perfil. Podem ser adicionados dados adicionais para uma maior personalização dos anúncios e dos conteúdos. A eficácia dos anúncios e dos conteúdos pode ser medida. Podem ser obtidas informações sobre o público que visualizou os anúncios e os conteúdos. Estes dados podem ser usados para desenvolver ou melhorar sistemas, softwares ou a experiência do utilizador.

Ao clicar em "Eu concordo”, permitirá o uso de cookies, identificadores do dispositivo e web beacons mencionados ou outras tecnologias semelhantes. As configurações do navegador do seu dispositivo podem ser alteradas.

Para certos fins, podem ser invocados interesses legítimos ao invés de consentimento. Pode ler mais informação sobre este assunto na nossa Política de Privacidade e Cookies.